• In Russia
  • List of Countries
  • For 7 days
  • Water Temperature
  • Satellite Maps
  • Weather Map
  • Weather Widgets
  • user-avatar
    Login

    Hourly Weather Sankt Polten

    Today, 20 July, Thursday

    Time Temperature Precipitation Wind Pressure Humidity
    00:00 +20°C° 0 mm 1 mps 734 mmHg 77%
    01:00 +20°C° 0 mm 1 mps 734 mmHg 74%
    02:00 +20°C° 0 mm 1 mps 734 mmHg 74%
    03:00 +19°C° 0 mm 1 mps 734 mmHg 74%
    04:00 +19°C° 0 mm 1 mps 734 mmHg 74%
    05:00 +21°C° 0 mm 1 mps 734 mmHg 71%
    06:00 +23°C° 0 mm 1 mps 734 mmHg 68%
    07:00 +24°C° 0 mm 1 mps 734 mmHg 63%
    08:00 +26°C° 0 mm 1 mps 734 mmHg 58%
    09:00 +28°C° 0 mm 1 mps 734 mmHg 52%
    10:00 +30°C° 0 mm 2 mps 734 mmHg 47%
    11:00 +31°C° 0.3 mm 2 mps 733 mmHg 47%
    12:00 +31°C° 0.3 mm 2 mps 733 mmHg 47%
    13:00 +32°C° 0.3 mm 2 mps 733 mmHg 47%
    14:00 +31°C° 0.5 mm 2 mps 733 mmHg 50%
    15:00 +31°C° 0.5 mm 2 mps 733 mmHg 54%
    16:00 +30°C° 0.5 mm 1 mps 732 mmHg 58%
    17:00 +28°C° 1.2 mm 2 mps 733 mmHg 66%
    18:00 +26°C° 1.2 mm 2 mps 733 mmHg 75%
    19:00 +24°C° 1.2 mm 2 mps 733 mmHg 83%
    20:00 +23°C° 0.8 mm 2 mps 733 mmHg 87%
    21:00 +21°C° 0.8 mm 2 mps 734 mmHg 90%
    22:00 +21°C° 0.8 mm 2 mps 734 mmHg 94%
    23:00 +20°C° 1.7 mm 2 mps 734 mmHg 94%

    Tomorrow, 21 July, Friday

    Time Temperature Precipitation Wind Pressure Humidity
    00:00 +20°C° 1.7 mm 2 mps 734 mmHg 95%
    01:00 +20°C° 1.7 mm 2 mps 735 mmHg 96%
    02:00 +20°C° 1 mm 2 mps 735 mmHg 96%
    03:00 +19°C° 1 mm 2 mps 735 mmHg 96%
    04:00 +19°C° 1 mm 2 mps 735 mmHg 96%
    05:00 +20°C° 0.9 mm 1 mps 735 mmHg 96%
    06:00 +21°C° 0.9 mm 1 mps 735 mmHg 95%
    07:00 +21°C° 0.9 mm 1 mps 735 mmHg 94%
    08:00 +22°C° 1 mm 1 mps 735 mmHg 91%
    09:00 +22°C° 1 mm 1 mps 735 mmHg 88%
    10:00 +23°C° 1 mm 1 mps 736 mmHg 84%
    11:00 +25°C° 0.1 mm 1 mps 735 mmHg 74%
    12:00 +27°C° 0.1 mm 1 mps 735 mmHg 64%
    13:00 +29°C° 0.1 mm 1 mps 735 mmHg 54%
    14:00 +29°C° 0 mm 1 mps 735 mmHg 53%
    15:00 +29°C° 0 mm 2 mps 735 mmHg 53%
    16:00 +29°C° 0 mm 2 mps 734 mmHg 52%
    17:00 +28°C° 0.1 mm 2 mps 734 mmHg 60%
    18:00 +26°C° 0.1 mm 2 mps 734 mmHg 67%
    19:00 +25°C° 0.1 mm 1 mps 734 mmHg 75%
    20:00 +23°C° 0.2 mm 1 mps 734 mmHg 79%
    21:00 +22°C° 0.2 mm 1 mps 734 mmHg 83%
    22:00 +21°C° 0.2 mm 1 mps 734 mmHg 87%
    23:00 +20°C° 0.2 mm 1 mps 734 mmHg 89%

    Day after tomorrow, 22 July, Saturday

    Time Temperature Precipitation Wind Pressure Humidity
    00:00 +20°C° 0.2 mm 1 mps 734 mmHg 90%
    01:00 +20°C° 0.2 mm 1 mps 734 mmHg 92%
    02:00 +19°C° 0.1 mm 1 mps 734 mmHg 93%
    03:00 +19°C° 0.1 mm 1 mps 734 mmHg 94%
    04:00 +19°C° 0.1 mm 1 mps 734 mmHg 95%
    05:00 +20°C° 0.1 mm 1 mps 734 mmHg 91%
    06:00 +22°C° 0.1 mm 1 mps 735 mmHg 88%
    07:00 +21°C° 0.1 mm 0 mps 735 mmHg 84%
    08:00 +25°C° 0 mm 1 mps 735 mmHg 77%
    09:00 +26°C° 0 mm 1 mps 735 mmHg 69%
    10:00 +28°C° 0 mm 1 mps 735 mmHg 61%
    11:00 +29°C° 0.3 mm 1 mps 735 mmHg 60%
    12:00 +30°C° 0.3 mm 1 mps 735 mmHg 60%
    13:00 +30°C° 0.3 mm 1 mps 735 mmHg 59%
    14:00 +30°C° 0.7 mm 1 mps 735 mmHg 59%
    15:00 +28°C° 0.7 mm 0 mps 735 mmHg 59%
    16:00 +28°C° 0.7 mm 0 mps 734 mmHg 60%
    17:00 +26°C° 0.3 mm 0 mps 734 mmHg 65%
    18:00 +25°C° 0.3 mm 0 mps 734 mmHg 70%
    19:00 +24°C° 0.3 mm 0 mps 734 mmHg 75%
    20:00 +23°C° 0.1 mm 0 mps 735 mmHg 76%
    21:00 +24°C° 0.1 mm 1 mps 735 mmHg 78%
    22:00 +23°C° 0.1 mm 1 mps 735 mmHg 80%
    23:00 +22°C° 0.2 mm 1 mps 735 mmHg 81%

    23 July, Sunday

    Time Temperature Precipitation Wind Pressure Humidity
    00:00 +22°C° 0.2 mm 1 mps 735 mmHg 82%
    01:00 +22°C° 0.2 mm 1 mps 735 mmHg 84%
    02:00 +21°C° 0.2 mm 1 mps 735 mmHg 85%
    03:00 +21°C° 0.2 mm 1 mps 735 mmHg 86%
    04:00 +21°C° 0.2 mm 1 mps 735 mmHg 87%
    05:00 +21°C° 0.8 mm 1 mps 735 mmHg 87%
    06:00 +21°C° 0.8 mm 2 mps 735 mmHg 88%
    07:00 +23°C° 0.8 mm 2 mps 736 mmHg 88%
    08:00 +24°C° 0.2 mm 2 mps 736 mmHg 81%
    09:00 +25°C° 0.2 mm 2 mps 736 mmHg 75%
    10:00 +27°C° 0.2 mm 2 mps 736 mmHg 68%
    11:00 +28°C° 0.1 mm 2 mps 735 mmHg 62%
    12:00 +29°C° 0.1 mm 2 mps 735 mmHg 57%
    13:00 +30°C° 0.1 mm 2 mps 735 mmHg 51%
    14:00 +30°C° 0.3 mm 2 mps 735 mmHg 53%
    15:00 +30°C° 0.3 mm 2 mps 735 mmHg 56%
    16:00 +29°C° 0.3 mm 2 mps 735 mmHg 58%
    17:00 +28°C° 0.5 mm 2 mps 735 mmHg 66%
    18:00 +26°C° 0.5 mm 2 mps 735 mmHg 74%
    19:00 +24°C° 0.5 mm 2 mps 736 mmHg 81%
    20:00 +23°C° 0.2 mm 2 mps 736 mmHg 84%
    21:00 +21°C° 0.2 mm 2 mps 736 mmHg 87%
    22:00 +20°C° 0.2 mm 2 mps 736 mmHg 90%
    23:00 +20°C° 0 mm 2 mps 736 mmHg 91%

    24 July, Monday

    Time Temperature Precipitation Wind Pressure Humidity
    00:00 +19°C° 0 mm 2 mps 736 mmHg 92%
    01:00 +20°C° 0 mm 1 mps 736 mmHg 92%
    02:00 +20°C° 0.1 mm 1 mps 736 mmHg 92%
    03:00 +20°C° 0.1 mm 1 mps 735 mmHg 92%
    04:00 +20°C° 0.1 mm 1 mps 735 mmHg 92%
    05:00 +20°C° 0 mm 1 mps 735 mmHg 89%
    06:00 +21°C° 0 mm 1 mps 735 mmHg 86%
    07:00 +20°C° 0 mm 0 mps 735 mmHg 82%
    08:00 +23°C° 0.1 mm 1 mps 734 mmHg 78%
    09:00 +24°C° 0.1 mm 1 mps 734 mmHg 73%
    10:00 +25°C° 0.1 mm 2 mps 734 mmHg 68%
    11:00 +25°C° 0.6 mm 2 mps 733 mmHg 70%
    12:00 +25°C° 0.6 mm 2 mps 732 mmHg 72%
    13:00 +25°C° 0.6 mm 2 mps 732 mmHg 74%
    14:00 +25°C° 1.2 mm 2 mps 731 mmHg 78%
    15:00 +24°C° 1.2 mm 2 mps 731 mmHg 82%
    16:00 +24°C° 1.2 mm 2 mps 730 mmHg 85%
    17:00 +23°C° 5.6 mm 2 mps 730 mmHg 88%
    18:00 +20°C° 5.6 mm 3 mps 730 mmHg 91%
    19:00 +19°C° 5.6 mm 3 mps 730 mmHg 94%
    20:00 +19°C° 2.4 mm 3 mps 730 mmHg 94%
    21:00 +18°C° 2.4 mm 4 mps 730 mmHg 95%
    22:00 +17°C° 2.4 mm 4 mps 731 mmHg 95%
    23:00 +17°C° 0.2 mm 4 mps 731 mmHg 95%

    25 July, Tuesday

    Time Temperature Precipitation Wind Pressure Humidity
    00:00 +17°C° 0.2 mm 3 mps 731 mmHg 95%
    01:00 +16°C° 0.2 mm 3 mps 731 mmHg 94%
    02:00 +16°C° 0 mm 3 mps 731 mmHg 94%
    03:00 +16°C° 0 mm 3 mps 731 mmHg 95%
    04:00 +16°C° 0 mm 3 mps 731 mmHg 95%
    05:00 +16°C° 0 mm 3 mps 731 mmHg 93%
    06:00 +17°C° 0 mm 4 mps 731 mmHg 91%
    07:00 +17°C° 0 mm 4 mps 731 mmHg 89%
    08:00 +18°C° 0 mm 4 mps 731 mmHg 83%
    09:00 +19°C° 0 mm 4 mps 731 mmHg 77%
    10:00 +20°C° 0 mm 4 mps 732 mmHg 70%
    11:00 +21°C° 0 mm 5 mps 732 mmHg 65%
    12:00 +22°C° 0 mm 5 mps 732 mmHg 59%
    13:00 +23°C° 0 mm 5 mps 732 mmHg 53%
    14:00 +23°C° 0 mm 5 mps 732 mmHg 53%
    15:00 +23°C° 0 mm 4 mps 732 mmHg 53%
    16:00 +23°C° 0 mm 4 mps 732 mmHg 53%
    17:00 +22°C° 0 mm 4 mps 732 mmHg 59%
    18:00 +20°C° 0 mm 3 mps 732 mmHg 65%
    19:00 +19°C° 0 mm 3 mps 732 mmHg 72%
    20:00 +18°C° 0 mm 3 mps 733 mmHg 76%
    21:00 +17°C° 0 mm 3 mps 733 mmHg 80%
    22:00 +16°C° 0 mm 3 mps 733 mmHg 84%
    23:00 +14°C° 0 mm 3 mps 733 mmHg 85%
    Show more